CAPE
1429 1538 1838 1733 1909 1949 2123 1821 1555 1499 1106 827 680 564 572 709 878 1155 1353 1604 1082 1239 1445 1447 1312 1331 1050 843 1245 1179 904 368 158 66 44 0 0 0 0 0 0 0 0
830 1116 1282 1718 1862 1851 1804 1558 1543 1403 1085 766 585 411 244 152 285 539 570 488 645 1087 992 1054 1323 1223 1300 1317 892 1016 1078 811 209 31 30 10 0 0 0 0 0 0 0
312 402 1419 1678 1487 1861 1686 1599 1528 1184 919 666 413 283 137 57 55 103 97 77 202 376 747 978 1143 982 1139 1134 1145 1107 1106 990 429 36 11 0 0 0 0 0 0 0 0
281 307 988 1873 1479 1405 1708 1487 1447 1130 819 631 515 284 193 128 57 70 9 58 156 93 310 718 1124 995 1008 1090 1266 1192 1166 906 627 10 0 0 0 0 0 0 0 0 0
107 102 643 1363 1982 1653 1234 1515 1319 1143 802 661 504 465 364 269 57 149 26 28 269 417 549 614 640 942 973 1078 1019 1223 1225 893 351 21 0 0 0 2 0 0 0 0 0
28 22 67 168 1019 656 796 914 1240 1179 983 851 670 522 486 260 0 0 0 88 119 56 9 3 186 586 605 436 283 855 960 676 244 42 0 0 0 0 0 0 0 0 0
11 12 25 44 84 313 233 480 561 782 929 831 666 542 473 457 203 1 0 6 45 13 15 0 0 17 346 522 382 88 88 549 391 53 0 0 0 0 0 0 0 0 0
9 8 6 8 38 69 106 175 302 604 706 571 412 478 499 477 352 36 0 0 0 0 2 1 0 8 371 733 706 726 509 285 22 14 0 0 0 0 0 0 0 0 1
2 2 0 21 37 47 84 132 227 299 226 241 262 353 381 405 327 10 0 0 0 0 0 0 0 0 91 507 369 476 588 663 6 0 0 0 0 0 0 1 0 0 0
3 5 10 11 31 33 45 62 80 158 172 129 43 129 194 252 161 5 0 0 0 0 0 0 0 0 46 293 122 558 544 482 0 0 0 0 0 0 0 0 0 0 0
23 16 10 8 5 2 0 12 25 35 26 46 56 54 120 217 316 25 0 7 2 0 0 0 0 0 0 0 0 530 510 191 0 0 0 0 0 0 0 0 0 0 0
1 0 0 0 0 0 0 0 0 0 10 23 16 39 48 57 42 45 7 0 4 0 0 0 0 1 0 0 0 111 193 0 0 0 0 0 0 0 0 0 0 0 0
10 19 23 24 19 11 6 1 0 0 11 16 42 46 55 44 30 4 7 0 0 0 0 0 0 0 0 1 1 2 0 0 1 1 0 0 0 0 0 0 0 0 0
3 10 20 11 3 5 4 10 18 15 13 25 43 46 47 56 69 48 12 0 0 0 0 0 0 0 0 0 1 0 0 0 0 0 0 0 0 0 0 0 0 0 0
3 5 4 3 4 4 5 12 11 9 12 6 18 25 32 43 46 17 10 29 0 9 0 0 0 0 1 0 0 0 0 0 0 0 0 0 0 0 0 0 0 0 0
7 6 5 5 6 6 5 5 1 0 0 0 0 0 0 0 0 0 0 0 1 18 23 15 0 1 0 0 0 1 0 0 0 0 0 0 0 0 0 0 0 0 0
7 6 6 6 8 8 7 7 5 4 0 0 0 0 0 0 0 0 0 0 0 0 30 0 0 0 0 0 0 0 0 0 0 0 0 0 0 0 0 0 0 0 0
14 6 9 10 7 5 7 5 7 10 10 9 1 0 0 0 0 0 0 0 0 0 0 3 0 0 0 0 1 1 1 1 0 0 0 0 0 0 0 0 0 0 0
20 15 11 12 12 9 7 7 9 10 10 8 6 7 0 0 0 0 0 0 0 0 0 0 2 0 0 0 1 1 2 4 0 0 0 0 0 0 0 0 0 0 0
11 5 3 8 8 12 17 10 9 10 8 9 7 5 4 0 0 0 0 0 0 2 6 1 5 0 0 1 1 1 2 0 0 0 0 0 0 0 0 0 0 0 0
11 10 0 4 5 5 9 13 11 6 6 6 6 2 1 7 4 2 0 2 3 1 3 3 12 0 1 1 0 1 0 0 0 0 0 0 0 0 0 0 0 0 0
12 12 11 9 6 5 5 6 6 11 4 4 3 5 0 0 7 1 1 0 0 3 3 9 6 0 1 1 0 0 0 0 0 0 0 0 0 0 0 0 0 0 0
6 6 6 6 7 2 2 5 8 7 6 6 4 3 0 0 0 0 0 0 2 1 5 11 2 1 0 0 0 0 0 0 0 0 0 0 0 0 0 0 0 0 0
3 4 4 5 4 5 6 6 6 0 1 2 0 1 1 1 5 3 3 6 3 4 5 4 0 0 0 0 0 0 0 0 0 0 0 0 0 0 0 0 0 0 0
5 3 2 3 2 1 4 5 6 1 0 0 3 3 7 7 2 3 6 5 3 0 0 0 0 0 0 0 0 0 0 0 0 0 0 0 0 0 0 0 0 0 0
4 4 3 1 2 1 1 0 0 1 1 0 1 4 3 1 0 0 0 0 0 0 0 0 0 0 0 0 0 0 0 0 0 0 0 0 0 0 0 0 0 0 0
CIN
-19 -18 -15 -25 -41 -47 -20 -69 -73 -58 -79 -86 -84 -85 -80 -81 -74 -46 -24 -11 -26 -36 -22 -19 -25 -24 -21 -40 -11 -8 -26 -66 -37 -33 -76 -1 0 0 0 0 0 0 0
-7 -26 -28 -27 -19 -33 -41 -64 -71 -67 -79 -81 -79 -83 -82 -96 -105 -76 -64 -63 -32 -16 -22 -18 -11 -17 -12 -23 -29 -12 -19 -48 -65 -51 -60 -19 0 0 0 0 0 0 0
-20 -12 -32 -42 -42 -31 -33 -22 -17 -27 -53 -79 -84 -87 -94 -98 -107 -115 -147 -167 -101 -56 -31 -9 -19 -25 -35 -14 -20 -18 -16 -30 -71 -78 -49 0 0 0 0 0 0 0 0
-25 -20 -24 -29 -41 -51 -32 -23 -18 -14 -13 -22 -38 -56 -64 -64 -83 -83 -59 -150 -102 -128 -61 -40 -23 -24 -20 -21 -13 -11 -17 -18 -32 -74 0 0 0 0 0 0 0 0 0
-97 -96 -61 -16 -19 -23 -30 -14 -13 -12 -10 -9 -9 -9 -20 -23 -34 -52 -105 -154 -82 -47 -40 -37 -29 -17 -3 -18 -31 -14 -10 -26 -77 -83 0 0 -4 0 0 0 0 0 0
-63 -91 -60 -60 -9 -34 -40 -32 -17 -14 -10 -10 -8 -8 -16 -6 0 0 0 -81 -88 -141 -214 -37 -94 -23 -28 -54 -78 -23 -33 -28 -47 -82 0 -1 0 0 -1 0 0 0 0
-27 -43 -32 -37 -20 -15 -35 -18 -9 -27 -23 -16 -14 -11 -10 -18 -8 -5 0 -12 -117 -135 -219 0 0 -86 -26 -30 -99 -129 -155 -60 -53 -116 0 0 0 0 0 0 0 0 0
-7 -7 -5 -11 -19 -27 -27 -28 -35 -29 -26 -21 -18 -12 -10 -7 -4 -63 0 0 0 0 -106 -111 0 -167 -56 -13 -27 -18 -85 -135 -89 -146 0 0 0 0 0 0 0 0 -18
-1 -1 0 -2 -4 -8 -12 -17 -27 -27 -30 -25 -13 -15 -15 -12 -4 -30 0 0 0 0 0 0 0 0 -154 -33 -32 -29 -12 -12 -10 0 0 0 0 0 0 -4 0 0 0
-2 -3 -3 -4 -5 -5 -12 -19 -19 -24 -21 -13 -13 -17 -13 -25 -21 -12 0 0 0 0 0 0 0 0 -172 -37 -102 -19 -12 -10 0 0 0 0 0 0 0 -1 0 0 0
-1 -2 -4 -7 -5 -10 0 -7 -13 -20 -26 -28 -14 -20 -42 -30 -14 -16 0 -31 -8 -2 0 0 0 0 0 0 0 -24 -14 -61 0 0 0 0 0 -1 0 0 0 0 0
-5 -5 0 0 0 0 0 0 0 -1 -1 -5 -15 -7 -7 -15 -10 -10 -41 0 -17 -3 0 0 0 -1 0 0 0 -66 -59 0 0 0 0 0 0 0 -1 0 0 0 0
-2 -1 0 0 0 0 -1 0 0 0 0 0 0 -1 -2 -6 -11 -22 -26 0 0 0 0 0 0 0 0 0 0 0 0 0 0 0 0 0 0 0 0 0 0 0 0
-8 -1 0 0 0 0 0 0 0 0 0 0 0 -1 0 -1 -8 -22 -33 -12 -11 0 0 0 0 0 0 0 0 0 0 0 0 0 0 0 0 0 0 0 0 0 0
0 0 0 0 0 0 0 0 0 0 0 0 -1 -1 -1 -1 -2 -4 -15 -28 0 -61 0 0 0 0 -2 0 0 0 0 0 0 0 0 0 -1 0 0 0 0 0 0
0 0 0 -1 -1 0 0 0 -1 0 0 0 0 -2 0 0 0 0 0 0 -71 -109 -23 -43 0 -1 0 0 0 0 0 0 0 0 0 0 0 0 0 0 0 0 0
0 0 0 0 0 0 0 0 0 0 0 0 0 0 0 0 0 0 0 0 0 -4 -19 0 0 0 0 0 0 0 0 0 -1 0 0 0 0 0 0 0 0 0 0
0 0 0 0 0 0 0 0 0 0 0 0 0 0 0 0 0 0 0 0 0 0 0 0 0 0 0 0 0 0 0 0 -1 0 0 0 0 0 0 0 0 0 0
0 0 -1 -1 -1 0 0 0 0 0 0 0 -1 -2 0 0 0 0 0 0 0 0 0 0 0 0 0 0 0 0 -1 -1 -2 -1 0 0 0 0 0 0 0 0 0
0 0 0 0 0 0 0 0 0 0 0 0 0 0 -1 -2 0 0 0 0 0 -1 -3 -1 -1 0 -1 -1 0 0 0 0 0 0 0 0 0 0 0 0 0 0 0
0 0 0 0 0 0 0 0 0 0 0 0 0 -1 -2 -1 0 0 0 0 0 -1 -2 -2 -28 -1 0 0 0 0 0 0 0 0 0 0 0 0 0 0 0 0 0
0 0 0 0 0 0 0 0 0 0 0 0 -1 -1 0 0 0 0 0 0 -1 -1 -3 -1 -1 -1 -1 -1 0 -1 0 0 0 0 0 0 0 0 0 0 0 0 0
0 0 0 0 0 0 0 0 0 0 0 0 -1 0 0 0 0 0 0 0 0 -1 -2 -2 -1 0 -1 0 0 0 0 0 0 0 0 0 0 0 0 0 0 0 0
0 0 0 0 0 0 0 0 0 0 0 0 -1 0 0 0 0 0 0 0 0 0 0 0 0 0 -1 0 0 0 0 0 0 0 0 0 0 0 0 0 0 0 0
0 0 0 0 0 0 0 0 0 0 0 0 0 0 0 0 0 0 0 0 0 0 0 0 -1 0 0 0 0 0 0 0 0 0 0 0 0 0 0 0 0 0 0
0 0 0 0 0 0 0 0 0 0 0 0 0 0 0 0 0 0 0 0 0 0 0 0 0 -1 0 0 0 0 0 0 0 0 0 0 0 0 0 0 0 0 0
Wind_Speed
9 8 7 8 8 6 5 6 5 4 4 4 5 5 5 5 5 5 5 6 7 6 6 7 9 6 5 6 4 5 7 6 7 3 3 10 11 13 13 10 13 9 8
4 8 9 9 8 7 6 7 6 6 6 6 5 6 5 5 5 5 5 6 7 6 10 9 9 6 7 6 6 7 7 5 7 8 7 9 11 13 11 15 11 10 8
6 8 7 9 10 9 9 7 7 7 7 8 8 7 6 6 6 6 6 6 6 7 8 9 10 7 8 5 5 8 7 5 5 5 6 7 10 11 12 11 11 12 9
8 10 7 6 10 11 10 10 8 7 7 7 8 8 7 6 7 7 6 6 5 6 7 8 9 8 10 7 7 8 8 7 4 8 7 9 10 11 10 11 8 11 10
8 10 10 5 5 6 6 6 8 9 9 9 8 8 8 8 8 8 9 9 8 6 6 8 9 9 15 11 7 7 9 7 2 9 9 8 9 12 13 9 8 10 8
5 8 9 9 5 5 7 7 7 7 8 9 9 10 8 8 13 14 9 6 6 6 6 8 9 11 11 14 13 13 11 9 8 8 9 12 13 12 9 11 9 10 6
7 8 10 9 9 7 5 5 8 8 9 10 11 12 13 12 12 11 12 6 6 7 7 8 10 11 10 10 10 10 9 13 16 13 15 15 14 16 13 12 11 11 8
10 10 11 12 12 11 11 11 10 9 11 12 14 15 15 12 13 13 14 9 9 9 9 9 11 12 12 9 8 6 6 7 12 10 13 11 11 13 17 14 14 11 6
12 13 13 14 13 12 13 13 11 12 13 13 14 15 15 14 13 15 12 10 11 10 10 11 13 14 15 14 10 11 8 6 2 5 11 12 11 16 12 9 11 10 8
13 13 13 13 12 12 12 12 11 11 12 11 15 15 16 14 12 16 14 9 11 9 9 11 15 17 15 15 12 12 10 9 8 6 5 8 14 14 15 11 10 11 10
13 13 13 12 12 11 13 12 11 12 11 12 14 14 13 11 11 14 15 11 10 9 10 10 10 15 20 18 16 11 12 10 10 11 9 9 9 11 11 7 10 10 9
13 14 15 14 12 12 14 13 14 13 14 15 15 13 11 12 12 11 13 16 11 10 11 9 9 11 12 15 12 12 15 12 8 8 9 9 10 10 9 7 7 4 6
13 14 15 15 13 13 14 15 14 14 13 14 12 13 13 12 11 18 18 19 19 16 15 14 13 8 8 5 6 12 17 9 10 9 10 9 9 8 6 6 7 9 7
17 17 14 15 16 15 13 13 13 13 14 13 13 12 12 12 11 9 12 13 21 16 16 13 13 11 10 5 6 10 10 10 12 12 11 9 9 9 6 5 7 8 9
16 15 15 13 15 14 14 12 13 14 14 13 12 12 13 12 11 6 1 2 2 10 12 9 6 7 7 5 6 10 9 9 10 10 10 12 11 10 10 6 7 7 7
14 13 13 12 11 11 12 13 19 22 25 21 15 13 12 12 13 6 3 7 4 2 3 6 8 9 9 9 10 10 9 12 11 11 12 13 12 11 10 8 8 9 9
16 15 12 14 12 12 11 12 13 13 19 21 22 25 25 25 20 14 4 10 8 5 7 6 7 8 10 10 11 11 12 12 14 12 13 13 12 11 13 11 10 9 9
16 22 13 12 12 12 12 12 11 12 12 11 17 22 24 27 23 23 14 7 4 4 6 5 7 9 9 10 11 11 11 11 13 13 14 14 13 13 11 12 12 11 11
13 12 11 11 11 13 12 12 11 12 12 11 10 10 13 18 19 19 18 12 13 10 8 8 7 9 9 10 11 11 13 13 14 14 14 14 13 13 12 12 12 13 11
14 21 19 12 11 11 11 11 11 12 11 11 10 11 9 7 9 10 11 11 12 11 10 9 8 9 10 10 11 11 12 12 13 13 13 13 13 13 13 13 13 12 12
11 12 14 11 12 11 11 12 10 11 11 11 12 12 13 10 10 10 10 11 11 11 11 10 10 11 11 12 12 12 12 13 14 14 14 14 13 14 13 12 12 13 12
10 11 11 11 10 11 11 10 11 11 12 12 12 10 11 10 11 10 10 11 11 13 12 13 11 12 12 13 14 14 15 15 15 15 15 14 13 13 12 12 13 13 12
11 12 12 11 10 10 10 10 10 11 11 11 11 8 6 7 8 9 10 10 12 13 12 12 12 12 12 13 14 16 17 17 16 16 16 15 15 14 11 13 14 13 13
10 12 12 10 9 9 9 10 10 12 11 11 8 7 7 6 7 8 8 9 10 11 12 13 13 16 15 14 13 14 15 16 15 16 18 14 14 12 11 13 13 13 12
10 7 7 9 8 8 8 9 8 6 3 3 3 4 5 6 6 7 8 8 9 10 11 13 12 18 21 23 20 20 16 11 17 16 14 18 14 15 14 13 14 12 13
12 11 8 7 5 3 3 2 2 2 2 3 3 4 3 3 5 6 5 7 8 9 12 10 14 20 22 20 23 19 16 14 18 17 14 12 13 12 13 14 16 11 16
Wind_Direction
181 184 194 192 198 203 177 179 192 158 157 184 196 208 223 231 236 238 252 267 272 256 245 253 262 252 249 259 222 247 250 202 205 221 134 141 148 151 157 141 143 139 148
228 201 197 196 192 193 200 192 191 184 184 203 217 219 219 236 239 238 255 270 281 271 250 250 256 260 253 233 247 240 240 224 207 179 182 164 153 166 144 148 154 152 156
285 267 218 200 195 191 197 196 195 196 195 204 220 220 219 227 235 233 239 250 263 278 280 265 240 243 256 241 219 245 241 236 204 147 166 154 148 142 150 155 168 151 159
307 276 271 220 206 198 185 187 198 208 217 214 219 225 231 231 239 240 245 249 259 272 281 281 267 246 249 243 234 234 238 233 206 153 167 165 151 159 158 161 177 149 144
15 357 338 321 190 184 186 195 199 208 220 227 235 234 226 228 233 230 235 240 234 246 274 285 277 254 240 229 225 220 233 234 154 156 160 170 165 168 174 168 170 141 171
355 330 322 325 294 219 206 204 225 218 225 231 239 245 246 241 230 231 224 223 233 243 258 277 282 285 286 253 236 216 204 231 168 160 166 175 191 179 167 170 171 163 175
322 307 298 299 290 290 273 251 234 223 233 236 240 241 243 242 239 216 208 218 224 232 238 251 266 267 265 274 228 225 233 208 173 183 182 188 180 181 164 166 190 185 178
280 278 277 279 279 279 275 265 256 246 237 236 238 239 240 241 231 220 220 231 237 238 239 247 255 263 263 259 278 244 207 212 197 186 192 182 178 171 171 179 185 174 129
280 275 273 271 265 266 267 261 254 245 242 242 242 241 241 244 227 219 209 226 235 237 241 244 248 253 252 235 240 248 239 235 182 261 166 162 159 158 172 178 175 159 148
283 284 283 284 284 275 269 267 268 268 261 252 247 242 240 242 231 212 198 227 240 244 245 248 245 242 241 236 225 232 230 195 172 150 135 139 151 170 182 218 167 158 151
281 285 286 292 295 297 302 294 284 279 275 282 265 247 243 249 243 214 207 220 232 238 246 252 249 244 231 227 216 225 213 178 194 184 173 157 163 176 183 212 174 167 165
299 294 290 287 286 289 288 285 287 282 283 263 257 264 244 238 238 237 210 219 230 240 243 249 259 278 227 202 204 226 165 162 166 179 172 171 173 175 192 149 167 133 164
283 283 284 274 269 267 266 267 271 266 268 260 265 253 247 237 235 228 225 218 223 235 244 241 239 247 237 232 199 168 152 163 167 169 170 160 164 138 94 80 82 81 101
278 272 271 268 267 264 261 258 255 253 252 258 254 253 257 250 228 219 230 235 238 233 239 239 235 230 195 190 130 170 172 171 169 171 161 146 137 118 111 121 118 119 116
272 266 262 259 258 257 254 255 254 251 248 248 252 254 250 257 257 188 259 338 341 277 224 218 210 216 209 171 169 182 174 164 167 156 150 149 146 141 129 142 149 131 140
267 262 256 256 255 254 255 258 247 248 255 260 255 247 265 277 300 258 199 129 61 9 216 188 198 208 203 177 179 177 173 160 162 158 155 152 152 145 141 158 167 145 150
257 257 255 251 250 249 248 250 259 251 240 240 245 249 248 251 259 278 123 117 131 158 262 210 194 194 190 175 176 177 175 170 163 160 157 154 148 152 155 164 166 156 158
258 256 255 253 248 244 242 244 246 250 252 249 237 234 240 242 235 237 224 165 232 198 231 261 210 185 189 178 175 175 167 166 168 163 163 156 153 151 163 174 170 161 159
266 260 256 254 250 244 239 239 238 240 244 249 252 244 226 230 217 214 208 227 235 227 207 220 218 189 182 179 174 172 166 170 168 166 165 159 155 156 179 179 164 156 159
267 259 252 254 255 250 245 234 234 236 236 239 240 241 237 215 216 216 213 218 226 222 214 202 202 195 181 176 174 169 167 164 164 165 156 158 156 167 185 174 162 158 160
263 259 246 245 243 239 237 242 231 228 232 235 237 234 225 220 223 215 209 205 206 208 206 201 200 189 181 174 170 169 162 164 162 162 158 157 166 169 187 171 161 152 159
266 262 254 245 235 231 230 230 231 234 227 232 241 239 212 219 226 213 210 207 205 204 192 191 184 180 179 173 168 165 165 163 161 159 157 162 164 183 182 162 156 157 161
263 256 251 245 239 229 223 228 228 230 237 238 240 230 189 207 213 204 198 193 194 197 186 184 180 178 178 171 172 166 169 166 165 161 160 163 172 185 168 159 156 164 167
263 251 246 239 225 222 219 225 225 227 230 234 230 197 201 203 203 208 201 199 187 186 180 178 178 174 171 168 171 172 172 163 161 160 156 164 183 163 159 156 165 164 158
315 305 230 223 214 205 216 225 236 215 169 148 171 186 197 191 196 206 208 197 182 163 169 161 166 170 166 164 165 165 159 147 153 147 157 186 168 157 156 157 167 158 148
352 354 17 18 34 44 65 57 76 100 140 153 173 186 168 166 154 152 155 156 159 162 150 156 155 158 157 160 159 143 143 144 137 153 181 172 157 154 158 158 162 148 150